Forside
METAR-TAF:

METAR-TAF

Lufthavne :

Angola, Indiana, USA

Breddekreds: 41-38-23N, længdekreds: 085-05-01W, højde: 303 m

Aktuelle vejr

Denne rapport blev lavet for 10 minutter siden, kl. 00:15 UTC
Vind stille
Temperatur 29°C
Fugtighed 52%
Tryk 1013 hPa
Sigt: 16.1 km
skyfri

METAR: KANQ 250015Z AUTO 00000KT 10SM CLR 29/18 A2992 RMK AO2

Tid: 20:25 (00:25 UTC)


TAF: fraværende

Vejrobservationer og prognoser fra mere end 4000 lufthavne (METAR og TAF).

De gule og røde prikker repræsenterer de meteorologiske stationer.

Flyt musen over at se navnet på stationen.

Så klik over at se vejr observationer og prognoser.

At skifte det kort: Klik på de grønne knapper med et sort kors for at zoome ind; på den grønne knap med en bindestreg for at zoome ud; eller på de grønne pile for tilstødende kort.


METAR-TAF: